Regional Weather Roundup
Issued by NWS

Home | Current Version | Previous Version | Graphics & Text | Print | Product List | Glossary On
Versions: 1 2 3 4 5 6 7 8 9 10 11 12 13 14 15 16 17 18 19 20 21 22 23 24 25 26 27 28 29 30 31 32 33 34 35 36 37 38 39 40 41 42 43 44 45 46 47 48 49 50
055
ASUS43 KIND 281509
RWRIN

WEATHER ROUNDUP FOR INDIANA
NATIONAL WEATHER SERVICE INDIANAPOLIS IN
1100 AM EDT SUN AUG 28 2016

NOTE: "FAIR" INDICATES FEW OR NO CLOUDS BELOW 12,000 FEET WITH NO
SIGNIFICANT WEATHER AND/OR OBSTRUCTIONS TO VISIBILITY.

* - STATION DOES NOT REPORT WEATHER SUCH AS PRECIPITATION OR FOG.

+ - STATION NOT QUALITY CONTROLLED BY THE NATIONAL WEATHER SERVICE.
    USE DATA WITH CAUTION...ESPECIALLY DEWPOINT AND RELATIVE
    HUMIDITY OBSERVATIONS.

INZ001>003-010>013-019-020-281600-
NORTHWEST INDIANA

CITY           SKY/WX    TMP DP  RH WIND       PRES   REMARKS
GARY /AIRPORT/ PTSUNNY   79  75  89 VRB7      30.20R
KNOX *+        MOSUNNY   77  54  44 CALM      30.20S
LA PORTE +     MOSUNNY   81  81 100 CALM      30.21S
MICHIGAN CITY+ MOSUNNY   79  77  94 CALM      30.21S
MONTICELLO +   PTSUNNY   78  70  75 CALM      30.19S
RENSSELAER +   MOSUNNY   79  73  83 CALM      30.19F
VALPARAISO     MOSUNNY   80  73  79 VRB3      30.20S

$$

LMZ046-743>745-281600-
SOUTHERN LAKE MICHIGAN

STATION/POSITION TIME  TEMP    WIND        PRES    WAVE
                       AIR SEA DIR/SP/G            HT
                 (UTC) (F)     (DEG/KT/KT) (MB)    (FT)
BURNS HARBOR     1400   74     200/  3/  4 1022.7R
MICHIGAN CITY    1400   74      20/ 10/ 11   N/A
5NW MICH CITY    1500   75 76   50/ 10/ 12   N/A     1

$$

INZ004-005-014>016-021>024-281600-
NORTH CENTRAL INDIANA

CITY           SKY/WX    TMP DP  RH WIND       PRES   REMARKS
GOSHEN         PTSUNNY   79  71  76 CALM      30.21R
LOGANSPORT +   MOSUNNY   81  73  78 CALM      30.21S
PERU/GRISSOM   SUNNY     81  74  78 VRB3      30.20S
ROCHESTER +    MOSUNNY   81  73  78 NW3       30.21S
SOUTH BEND     MOSUNNY   80  74  81 MISG      30.21R
WARSAW +       MOSUNNY   79  77  94 NW6       30.21S

$$

INZ006>009-017-018-025>027-281600-
NORTHEAST INDIANA

CITY           SKY/WX    TMP DP  RH WIND       PRES   REMARKS
ANGOLA *+      MOSUNNY   82  75  78 CALM      30.20F
AUBURN +       SUNNY     81  72  74 W3        30.22R
FORT WAYNE     MOSUNNY   83  73  72 VRB3      30.21F
HUNTINGTON +   SUNNY     80  76  87 SW3       30.21S

$$

INZ028-029-035-036-043>045-051>053-281600-
WEST CENTRAL INDIANA

CITY           SKY/WX    TMP DP  RH WIND       PRES   REMARKS
CRAWFORDSVL +  SUNNY     80  77  91 CALM      30.20F
GREENCASTLE +  SUNNY     81  77  89 CALM      30.22S
LAFAYETTE      MOSUNNY   82  76  81 CALM      30.19S
TERRE HAUTE    SUNNY     84  74  71 CALM      30.19F

$$

INZ030>032-037>040-046>048-054>057-064-065-281600-
CENTRAL INDIANA

CITY           SKY/WX    TMP DP  RH WIND       PRES   REMARKS
COLUMBUS       SUNNY     81  79  94 CALM      30.21S
INDIANAPOLIS   MOSUNNY   83  74  74 CALM      30.20F
-EAGLE CREEK   MOSUNNY   82  74  76 CALM      30.20F
KOKOMO *+      MOSUNNY   82  75  78 CALM      30.20F
MARION +       MOSUNNY   80  74  79 CALM      30.21F HAZE
MT COMFORT *+  MOSUNNY   81  75  83 CALM      30.22S
SHELBYVILLE    SUNNY     83  74  74 E3        30.21S
ZIONSVILLE +   SUNNY     80  75  85 CALM      30.22F

$$

INZ033-034-041-042-049-050-058-059-281600-
EAST CENTRAL INDIANA

CITY           SKY/WX    TMP DP  RH WIND       PRES   REMARKS
MUNCIE         MOSUNNY   81  73  76 CALM      30.22F

$$

INZ060-061-067>069-081>083-085>088-281600-
SOUTHWEST INDIANA

CITY           SKY/WX    TMP DP  RH WIND       PRES   REMARKS
EVANSVILLE     PTSUNNY   86  76  71 N3        30.18S HX  96
HUNTINGBURG *+ SUNNY     84  73  70 E5        30.19S
WASHINGTON +   SUNNY     84  77  78 MISG      30.19S

$$

INZ062-063-066-070>080-084-089>092-281600-
SOUTH CENTRAL AND SOUTHEAST INDIANA

CITY           SKY/WX    TMP DP  RH WIND       PRES   REMARKS
BLOOMINGTON    MOSUNNY   86  74  67 VRB5      30.21R
MADISON *+     SUNNY     82  70  65 CALM      30.24R

$$





USA.gov is the U.S. government's official web portal to all federal, state and local government web resources and services.